SL-14 DEB

Satellite information

Favourite Embed

Satellite Type and Status

DEBRISIN ORBIT

Key statistics

Satellite SL-14 DEB at a glance.

Uptime

17216

Days in orbit

Revolutions

≈ 12.7

Per day

Orbit

LEO

Low Earth Orbit

Inclination

81.7

Latest

Satellite identification and parameters

Extended collection of information and parameters for SL-14 DEB.

Object identification

Identified? True

Debris? True

Object name: SL-14 DEB

International designator: 1978-100P

Object number (NORAD): 19143

Object ID (CCSDS): 19143

Country: COMMONWEALTH OF INDEPENDENT STATES (CIS)

Current information (Y/N): Y

RCS size: SMALL

Orbital parameters

Period: 113.346 minutes

Inclination: 81.6996 deg

SMA: 7758.238 km

Apoapsis: 1614.672 km

Periapsis: 1145.533 km

RAAN: 207.0255 deg

Eccentricy: 0.03023487

Argument of periapsis: 113.7119 deg

Mean anomaly: 278.4129 deg

Mean motion: 12.7045169 rev/day

Mean motion (dot): 0.00001105 rev/day2

B* drag term: 0.004558413 1/REarth

Two-line elements (TLE)

Creation date: Dec. 14, 2025, 3:07 a.m.

Reference frame: TEME

Reference center: EARTH

Epoch: Dec. 13, 2025, 2:46 p.m. UTC

TLE line 0: 0 SL-14 DEB

TLE line 1: 1 19143U 78100P 25347.61549557 .00001105 00000-0 45584-2 0 9992

TLE line 2: 2 19143 81.6996 207.0255 0302349 113.7119 278.4129 12.70451690734220

Live tracking on map

Real-time ground track for satellite SL-14 DEB.

In-orbit conjunctions

A list of the most updated potential collisions computed for object SL-14 DEB.

Target Orbit TCA Probability of collision Miss distance Type
DELTA 1 DEB SSO 2025-07-16 09:14:03 0.0003435042 54.0 (m) DEBRIS

Associated space launch

Mass model of the Meteor-2 meteorological satellite

SL-14 DEB was lifted into orbit during the mission ‘Tsiklon-3 | Meteor-2-GVM’, on board a Tsiklon-3 space rocket.

The launch took place on Oct. 26, 1978, 7 a.m. from 32/2.

For more information about the launch, click the button.

Launch to space Tsiklon-3 | Meteor-2-GVM
Tsiklon-3 | Meteor-2-GVM

Agency: N/A

Status: Launch Successful

Launch date: Oct. 26, 1978, 7 a.m. UTC

Rocket: Tsiklon-3

Launch pad: 32/2

Location: Plesetsk Cosmodrome, Russian Federation

...

Latest news about this satellite

There are no fresh news available about this satellite. Check back as we update our databases every day.


Newsletter sign-up

Weekly statistics, charts and insights to help you stay on top of the space industry.